Location: Peterborough
(44.3091°N, 78.3197°W)
Time: 08:05:25
(UTC-04:00)

Vanguard 3 - Pass Details

Date: 03 March 2024
Orbit: 510 x 3234 km, 33.3° (Epoch: 24 April)

Event Time Altitude Azimuth Distance (km) Brightness Sun altitude
Rises 20:06:12 0° 249° (WSW) 6,261 12.6 -22.4°
Reaches altitude 10° 20:10:00 10° 246° (WSW) 5,518 12.0 -23.0°
Maximum altitude 20:27:29 58° 173° (S) 3,578 10.1 -26.0°
Enters shadow 20:36:30 37° 117° (ESE) 4,241 10.2 -27.6°
